Weather History for KASW - November, 2012

Change the Weather History Date:

Saturday, November 24, 2012

  Actual Average Record
Temperature  
Mean Temperature 29 °F -  
Max Temperature 30 °F 42 °F 61 °F (1958)
Min Temperature 28 °F 26 °F -4 °F (1950)
Degree Days  
Heating Degree Days 36    
Moisture  
Dew Point 21 °F    
Average Humidity 71    
Maximum Humidity 75    
Minimum Humidity 64    
Precipitation  
Precipitation 0.00 in - - ()
Sea Level Pressure  
Sea Level Pressure 30.15 in    
Wind  
Wind Speed 10 mph (WSW)    
Max Wind Speed 15 mph    
Max Gust Speed 18 mph    
Visibility 10 miles    
Events Snow    
Averages and records for this station are not official NWS values.
T = Trace of Precipitation, MM = Missing Value Source: NWS Daily Summary

Daily Weather History Graph

Daily Weather History Graph

Search for Another Location

Airport or City:

Trip Planner

Search our weather history database for the weather conditions in past years. The results will help you decide how hot, cold, wet, or windy it might be!

Date:

Astronomy

Nov. 24, 2012 Rise Set
Actual Time 7:42 AM EST 5:17 PM EST
Civil Twilight 7:12 AM EST 5:47 PM EST
Nautical Twilight 6:38 AM EST 6:21 PM EST
Astronomical Twilight 6:05 AM EST 6:54 PM EST
Moon 3:03 PM EST (11/24) 3:57 AM EST (11/24)
Length of Visible Light 10h 35m
Length of Day
9h 34m
Waxing Gibbous, 87% of the Moon is Illuminated
Nov 24
Waxing Gibbous
Nov 28
Full
Dec 6
Last Quarter
Dec 13
New
Dec 20
First Quarter

Hourly Weather History & Observations

Time (EST) Temp. Windchill Dew Point Humidity Pressure Visibility Wind Dir Wind Speed Gust Speed Precip Events Conditions
12:15 AM 30.2 °F 20.2 °F 21.2 °F 69% 30.13 in 10.0 mi West 12.7 mph 18.4 mph N/A   Overcast
12:55 AM 30.2 °F 21.3 °F 21.2 °F 69% 30.14 in 10.0 mi West 10.4 mph - N/A   Overcast
1:15 AM 30.2 °F 22.6 °F 21.2 °F 69% 30.13 in 10.0 mi West 8.1 mph - N/A   Overcast
1:35 AM 30.2 °F 22.6 °F 21.2 °F 69% 30.13 in 10.0 mi West 8.1 mph - N/A   Overcast
1:55 AM 30.2 °F 21.9 °F 21.2 °F 69% 30.13 in 10.0 mi West 9.2 mph - N/A   Overcast
2:15 AM 30.2 °F 21.3 °F 21.2 °F 69% 30.13 in 10.0 mi West 10.4 mph - N/A Snow Light Snow
2:35 AM 30.2 °F 21.9 °F 21.2 °F 69% 30.13 in 10.0 mi West 9.2 mph - N/A   Overcast
3:15 AM 30.2 °F 21.3 °F 21.2 °F 69% 30.14 in 10.0 mi West 10.4 mph - N/A   Overcast
3:35 AM 30.2 °F 21.9 °F 21.2 °F 69% 30.14 in 10.0 mi WSW 9.2 mph - N/A   Overcast
3:55 AM 30.2 °F 19.8 °F 21.2 °F 69% 30.14 in 10.0 mi West 13.8 mph - N/A   Overcast
4:15 AM 30.2 °F 20.2 °F 21.2 °F 69% 30.14 in 10.0 mi West 12.7 mph 17.3 mph N/A   Overcast
4:55 AM 30.2 °F 20.2 °F 21.2 °F 69% 30.15 in 10.0 mi West 12.7 mph - N/A   Overcast
5:15 AM 30.2 °F 21.3 °F 23.0 °F 75% 30.15 in 10.0 mi West 10.4 mph 16.1 mph N/A   Overcast
5:35 AM 30.2 °F 21.3 °F 23.0 °F 75% 30.15 in 10.0 mi West 10.4 mph - N/A   Overcast
5:55 AM 30.2 °F 21.3 °F 23.0 °F 75% 30.15 in 10.0 mi West 10.4 mph - N/A   Overcast
6:15 AM 30.2 °F 20.8 °F 23.0 °F 75% 30.15 in 10.0 mi West 11.5 mph - N/A   Overcast
6:35 AM 30.2 °F 21.3 °F 23.0 °F 75% 30.16 in 10.0 mi West 10.4 mph - N/A   Overcast
6:55 AM 30.2 °F 21.9 °F 23.0 °F 75% 30.16 in 10.0 mi WNW 9.2 mph - N/A   Overcast
7:15 AM 30.2 °F 21.9 °F 23.0 °F 75% 30.16 in 10.0 mi West 9.2 mph - N/A   Overcast
7:35 AM 30.2 °F 20.8 °F 23.0 °F 75% 30.16 in 10.0 mi West 11.5 mph - N/A   Overcast
7:55 AM 28.4 °F 18.5 °F 21.2 °F 74% 30.17 in 10.0 mi West 11.5 mph - N/A   Overcast
8:15 AM 28.4 °F 18.5 °F 21.2 °F 74% 30.17 in 10.0 mi West 11.5 mph - N/A   Overcast
8:35 AM 28.4 °F 18.5 °F 21.2 °F 74% 30.18 in 10.0 mi West 11.5 mph - N/A   Overcast
8:55 AM 28.4 °F 18.5 °F 21.2 °F 74% 30.18 in 10.0 mi West 11.5 mph - N/A   Overcast
9:15 AM 28.4 °F 20.4 °F 21.2 °F 74% 30.18 in 10.0 mi West 8.1 mph - N/A   Overcast
9:35 AM 28.4 °F 20.4 °F 21.2 °F 74% 30.19 in 10.0 mi West 8.1 mph - N/A   Overcast
10:15 AM 28.4 °F 19.1 °F 21.2 °F 74% 30.20 in 10.0 mi West 10.4 mph - N/A   Overcast
10:35 AM 30.2 °F 22.6 °F 21.2 °F 69% 30.20 in 10.0 mi West 8.1 mph - N/A   Overcast
10:55 AM 30.2 °F 20.2 °F 21.2 °F 69% 30.20 in 10.0 mi West 12.7 mph - N/A   Overcast
11:15 AM 30.2 °F 20.2 °F 21.2 °F 69% 30.20 in 10.0 mi West 12.7 mph - N/A   Overcast
11:35 AM 30.2 °F 20.8 °F 21.2 °F 69% 30.20 in 10.0 mi West 11.5 mph - N/A   Overcast
11:55 AM 30.2 °F 20.2 °F 21.2 °F 69% 30.20 in 10.0 mi West 12.7 mph - N/A   Overcast
12:15 PM 30.2 °F 20.8 °F 21.2 °F 69% 30.19 in 10.0 mi West 11.5 mph - N/A   Overcast
12:35 PM 30.2 °F 20.2 °F 21.2 °F 69% 30.18 in 10.0 mi West 12.7 mph - N/A   Overcast
12:55 PM 30.2 °F 20.8 °F 21.2 °F 69% 30.18 in 10.0 mi West 11.5 mph - N/A   Overcast
1:15 PM 30.2 °F 21.3 °F 21.2 °F 69% 30.18 in 10.0 mi West 10.4 mph - N/A   Overcast
1:35 PM 30.2 °F 19.3 °F 21.2 °F 69% 30.18 in 10.0 mi WSW 15.0 mph - N/A   Overcast
1:55 PM 30.2 °F 20.2 °F 21.2 °F 69% 30.18 in 10.0 mi West 12.7 mph - N/A   Overcast
2:15 PM 30.2 °F 21.3 °F 21.2 °F 69% 30.18 in 10.0 mi West 10.4 mph - N/A   Overcast
2:35 PM 28.4 °F 17.5 °F 21.2 °F 74% 30.18 in 10.0 mi West 13.8 mph 17.3 mph N/A   Overcast
2:55 PM 28.4 °F 18.0 °F 21.2 °F 74% 30.17 in 10.0 mi West 12.7 mph - N/A   Overcast
3:15 PM 28.4 °F 19.1 °F 21.2 °F 74% 30.16 in 10.0 mi West 10.4 mph - N/A   Overcast
3:35 PM 28.4 °F 18.5 °F 21.2 °F 74% 30.16 in 10.0 mi West 11.5 mph - N/A   Overcast
3:55 PM 28.4 °F 20.4 °F 21.2 °F 74% 30.16 in 10.0 mi West 8.1 mph - N/A   Overcast
4:15 PM 28.4 °F 19.1 °F 21.2 °F 74% 30.16 in 10.0 mi West 10.4 mph - N/A   Overcast
4:35 PM 28.4 °F 19.1 °F 21.2 °F 74% 30.16 in 10.0 mi West 10.4 mph - N/A   Overcast
4:55 PM 28.4 °F 19.1 °F 21.2 °F 74% 30.16 in 10.0 mi West 10.4 mph - N/A   Overcast
5:15 PM 28.4 °F 20.4 °F 21.2 °F 74% 30.16 in 10.0 mi West 8.1 mph - N/A   Overcast
5:35 PM 28.4 °F 20.4 °F 21.2 °F 74% 30.15 in 10.0 mi WSW 8.1 mph - N/A   Overcast
5:55 PM 28.4 °F 21.2 °F 21.2 °F 74% 30.15 in 10.0 mi West 6.9 mph - N/A   Overcast
6:15 PM 28.4 °F 23.3 °F 21.2 °F 74% 30.14 in 10.0 mi WSW 4.6 mph - N/A   Overcast
6:35 PM 28.4 °F 20.4 °F 21.2 °F 74% 30.14 in 10.0 mi WSW 8.1 mph - N/A   Overcast
6:55 PM 28.4 °F 22.2 °F 21.2 °F 74% 30.14 in 10.0 mi WSW 5.8 mph - N/A   Overcast
7:15 PM 28.4 °F 20.4 °F 19.4 °F 69% 30.15 in 10.0 mi WSW 8.1 mph - N/A   Overcast
7:35 PM 30.2 °F 22.6 °F 19.4 °F 64% 30.14 in 10.0 mi WSW 8.1 mph - N/A   Overcast
7:55 PM 28.4 °F 20.4 °F 19.4 °F 69% 30.14 in 10.0 mi WSW 8.1 mph - N/A   Overcast
8:15 PM 28.4 °F 23.3 °F 19.4 °F 69% 30.12 in 10.0 mi WSW 4.6 mph - N/A   Overcast
8:35 PM 28.4 °F 22.2 °F 19.4 °F 69% 30.12 in 10.0 mi SW 5.8 mph - N/A   Overcast
8:55 PM 28.4 °F 21.2 °F 19.4 °F 69% 30.11 in 10.0 mi WSW 6.9 mph - N/A   Overcast
9:15 PM 28.4 °F 22.2 °F 19.4 °F 69% 30.10 in 10.0 mi SW 5.8 mph - N/A   Overcast
9:35 PM 28.4 °F 22.2 °F 19.4 °F 69% 30.10 in 10.0 mi SW 5.8 mph - N/A   Overcast
9:55 PM 28.4 °F - 19.4 °F 69% 30.09 in 10.0 mi Calm Calm - N/A   Scattered Clouds
10:15 PM 28.4 °F 23.3 °F 19.4 °F 69% 30.09 in 10.0 mi SSW 4.6 mph - N/A   Clear
10:35 PM 28.4 °F 23.3 °F 19.4 °F 69% 30.07 in 10.0 mi South 4.6 mph - N/A   Scattered Clouds
11:15 PM 28.4 °F 23.3 °F 19.4 °F 69% 30.07 in 10.0 mi South 4.6 mph - N/A   Overcast
11:35 PM 28.4 °F 22.2 °F 19.4 °F 69% 30.06 in 10.0 mi South 5.8 mph - N/A   Overcast